Weather History for EICK - December, 2013

Change the Weather History Date:

Thursday, December 5, 2013

  Actual Average Record
Temperature  
Mean Temperature 42 °F -  
Max Temperature 50 °F 47 °F 53 °F (2001)
Min Temperature 33 °F 38 °F 30 °F (2010)
Degree Days  
Heating Degree Days 24    
Moisture  
Dew Point 40 °F    
Average Humidity 84    
Maximum Humidity 93    
Minimum Humidity 76    
Precipitation  
Precipitation 0.00 in 0.18 in - ()
Sea Level Pressure  
Sea Level Pressure 30.38 in    
Wind  
Wind Speed 14 mph ()    
Max Wind Speed 28 mph    
Max Gust Speed -    
Visibility 6.7 miles    
Events Rain    
Averages and records for this station are not official NWS values.
T = Trace of Precipitation, MM = Missing Value Source: Averaged Metar Reports

Daily Weather History Graph

Daily Weather History Graph

Search for Another Location

Airport or City:

Trip Planner

Search our weather history database for the weather conditions in past years. The results will help you decide how hot, cold, wet, or windy it might be!

Date:

Astronomy

Dec. 05, 2013 Rise Set
Actual Time 8:24 AM GMT 4:24 PM GMT
Civil Twilight 7:44 AM GMT 5:04 PM GMT
Nautical Twilight 7:01 AM GMT 5:47 PM GMT
Astronomical Twilight 6:20 AM GMT 6:28 PM GMT
Moon 10:24 AM GMT (12/5) 7:40 PM GMT (12/5)
Length of Visible Light 9h 20m
Length of Day
8h 00m
Waxing Crescent, 9% of the Moon is Illuminated
Dec 5
Waxing Crescent
Dec 9
First Quarter
Dec 17
Full
Dec 25
Last Quarter
Jan 1
New

Hourly Weather History & Observations

Time (GMT) Temp. Windchill Dew Point Humidity Pressure Visibility Wind Dir Wind Speed Gust Speed Precip Events Conditions
12:00 AM 36 °F - 33 °F 87% 30.57 in 22 mi WSW 11.2 mph - -   Scattered Clouds
12:00 AM 35.6 °F 28.0 °F 33.8 °F 93% 30.54 in 6.2 mi WSW 10.4 mph - N/A   Partly Cloudy
12:30 AM 35.6 °F 28.6 °F 33.8 °F 93% 30.54 in 6.2 mi WSW 9.2 mph - N/A   Partly Cloudy
1:00 AM 35.6 °F 28.0 °F 33.8 °F 93% 30.51 in 6.2 mi WSW 10.4 mph - N/A   Partly Cloudy
1:30 AM 33.8 °F 26.4 °F 32.0 °F 93% 30.51 in 6.2 mi SW 9.2 mph - N/A   Partly Cloudy
2:00 AM 35.6 °F 28.6 °F 32.0 °F 87% 30.48 in 6.2 mi SW 9.2 mph - N/A   Partly Cloudy
2:30 AM 35.6 °F 27.5 °F 32.0 °F 87% 30.48 in 6.2 mi SW 11.5 mph - N/A   Partly Cloudy
3:00 AM 37.4 °F 29.8 °F 33.8 °F 87% 30.45 in 6.2 mi SW 11.5 mph - N/A   Mostly Cloudy
3:30 AM 39.2 °F 31.6 °F 33.8 °F 81% 30.45 in 6.2 mi WSW 12.7 mph - N/A   Scattered Clouds
4:00 AM 41.0 °F 32.8 °F 35.6 °F 81% 30.42 in 6.2 mi WSW 16.1 mph - N/A   Partly Cloudy
4:30 AM 42.8 °F 34.8 °F 35.6 °F 76% 30.42 in 6.2 mi West 17.3 mph - N/A   Partly Cloudy
5:00 AM 41.0 °F 34.3 °F 35.6 °F 81% 30.39 in 6.2 mi WSW 11.5 mph - N/A   Partly Cloudy
5:30 AM 41.0 °F 35.2 °F 35.6 °F 81% 30.39 in 6.2 mi WSW 9.2 mph - N/A   Partly Cloudy
6:00 AM 41 °F - 37 °F 80% 30.41 in 19 mi WSW 11.2 mph - -   Scattered Clouds
6:00 AM 41.0 °F 34.7 °F 37.4 °F 87% 30.36 in 6.2 mi WSW 10.4 mph - N/A   Partly Cloudy
6:30 AM 42.8 °F 34.8 °F 37.4 °F 81% 30.33 in 6.2 mi WSW 17.3 mph - N/A   Partly Cloudy
7:00 AM 42.8 °F 35.8 °F 37.4 °F 81% 30.33 in 6.2 mi WSW 13.8 mph - N/A   Partly Cloudy
7:30 AM 44.6 °F 35.5 °F 39.2 °F 81% 30.33 in 6.2 mi West 25.3 mph - N/A   Partly Cloudy
8:00 AM 44.6 °F 35.7 °F 39.2 °F 81% 30.33 in 6.2 mi West 24.2 mph - N/A   Partly Cloudy
8:30 AM 44.6 °F 35.1 °F 39.2 °F 81% 30.33 in 6.2 mi West 27.6 mph - N/A   Partly Cloudy
9:00 AM 44.6 °F 36.1 °F 39.2 °F 81% 30.33 in 6.2 mi West 21.9 mph - N/A   Scattered Clouds
9:30 AM 46.4 °F 39.8 °F 39.2 °F 76% 30.33 in 6.2 mi WSW 16.1 mph - N/A   Mostly Cloudy
10:00 AM 46.4 °F 39.5 °F 39.2 °F 76% 30.33 in 6.2 mi West 17.3 mph - N/A   Mostly Cloudy
10:30 AM 48.2 °F - 41.0 °F 76% 30.33 in 6.2 mi West 21.9 mph - N/A   Mostly Cloudy
11:00 AM 48.2 °F - 41.0 °F 76% 30.33 in 6.2 mi West 19.6 mph - N/A   Mostly Cloudy
11:30 AM 48.2 °F - 42.8 °F 82% 30.33 in 6.2 mi West 21.9 mph - N/A   Mostly Cloudy
12:00 PM 48 °F - 44 °F 81% 30.36 in 11 mi West 20.1 mph - -   Mostly Cloudy
12:00 PM 48.2 °F - 44.6 °F 87% 30.33 in 6.2 mi West 20.7 mph - N/A   Mostly Cloudy
12:30 PM 50.0 °F - 44.6 °F 82% 30.33 in 6.2 mi West 20.7 mph - N/A   Mostly Cloudy
1:00 PM 50.0 °F - 42.8 °F 76% 30.33 in 6.2 mi West 23.0 mph - N/A   Mostly Cloudy
1:30 PM 50.0 °F - 44.6 °F 82% 30.30 in 6.2 mi WNW 25.3 mph - N/A Rain Light Rain Showers
2:00 PM 50.0 °F - 44.6 °F 82% 30.30 in 6.2 mi West 20.7 mph - N/A   Mostly Cloudy
2:30 PM 50.0 °F - 44.6 °F 82% 30.30 in 6.2 mi WNW 23.0 mph - N/A   Mostly Cloudy
3:00 PM 50.0 °F - 44.6 °F 82% 30.30 in 6.2 mi West 21.9 mph - N/A   Mostly Cloudy
3:30 PM 50.0 °F - 44.6 °F 82% 30.33 in 6.2 mi West 19.6 mph - N/A   Mostly Cloudy
4:00 PM 50.0 °F - 44.6 °F 82% 30.33 in 6.2 mi WNW 20.7 mph - N/A   Mostly Cloudy
4:30 PM 50.0 °F - 44.6 °F 82% 30.33 in 6.2 mi WNW 17.3 mph - N/A   Mostly Cloudy
5:00 PM 50.0 °F - 44.6 °F 82% 30.33 in 6.2 mi West 17.3 mph - N/A   Mostly Cloudy
5:30 PM 48.2 °F - 46.4 °F 93% 30.36 in 6.2 mi West 16.1 mph - N/A   Mostly Cloudy
6:00 PM 49 °F - 45 °F 82% 30.39 in 12 mi WNW 13.4 mph - -   Partly Cloudy
6:00 PM 48.2 °F - 44.6 °F 87% 30.36 in 6.2 mi WNW 12.7 mph - N/A   Mostly Cloudy
6:30 PM 48.2 °F - 44.6 °F 87% 30.36 in 6.2 mi WNW 16.1 mph - N/A   Mostly Cloudy
7:00 PM 48.2 °F - 44.6 °F 87% 30.36 in 6.2 mi WNW 16.1 mph - N/A   Mostly Cloudy
7:30 PM 48.2 °F - 44.6 °F 87% 30.36 in 6.2 mi WNW 13.8 mph - N/A   Mostly Cloudy
8:00 PM 48.2 °F - 44.6 °F 87% 30.36 in 6.2 mi WNW 16.1 mph - N/A   Mostly Cloudy
8:30 PM 48.2 °F - 44.6 °F 87% 30.39 in 6.2 mi WNW 15.0 mph - N/A   Mostly Cloudy
9:00 PM 46.4 °F 40.7 °F 44.6 °F 93% 30.39 in 6.2 mi WNW 12.7 mph - N/A   Mostly Cloudy
9:30 PM 46.4 °F 41.1 °F 42.8 °F 87% 30.39 in 6.2 mi WNW 11.5 mph - N/A   Scattered Clouds
10:00 PM 46.4 °F 41.5 °F 42.8 °F 87% 30.42 in 6.2 mi WNW 10.4 mph - N/A   Scattered Clouds
10:30 PM 46.4 °F 42.4 °F 42.8 °F 87% 30.42 in 6.2 mi West 8.1 mph - N/A   Scattered Clouds
11:00 PM 46.4 °F 41.9 °F 42.8 °F 87% 30.42 in 6.2 mi West 9.2 mph - N/A   Mostly Cloudy
11:30 PM 46.4 °F 42.9 °F 42.8 °F 87% 30.42 in 6.2 mi WNW 6.9 mph - N/A Rain Light Rain Showers